Weather History for Charleston, SC

Change the Weather History Date:

Sunday, January 5, 2014

  Actual Average Record
Temperature  
Mean Temperature 57 °F 48 °F  
Max Temperature 71 °F 59 °F 79 °F (1993)
Min Temperature 43 °F 37 °F 16 °F (1981)
Degree Days  
Heating Degree Days 8 17  
Month to date heating degree days 85  
Since 1 July heating degree days 823  
Cooling Degree Days 0 0  
Month to date cooling degree days 0  
Year to date cooling degree days 0  
Growing Degree Days 7 (Base 50)    
Moisture  
Dew Point 48 °F    
Average Humidity 76    
Maximum Humidity 93    
Minimum Humidity 59    
Precipitation  
Precipitation 0.00 in 0.12 in 1.22 in (1971)
Month to date precipitation 0.57  
Year to date precipitation 0.57  
Snow  
Snow 0.00 in 0.10 in 0.00 in (2003)
Month to date snowfall 0.1  
Since 1 July snowfall 0.4  
Snow Depth -    
Sea Level Pressure  
Sea Level Pressure 30.05 in    
Wind  
Wind Speed 4 mph (North)    
Max Wind Speed 7 mph    
Max Gust Speed -    
Visibility 10 miles    
Events      
T = Trace of Precipitation, MM = Missing Value Source: NWS Daily Summary

Daily Weather History Graph

Daily Weather History Graph

Search for Another Location

Airport:

Trip Planner

Search our weather history database for the weather conditions in past years. The results will help you decide how hot, cold, wet, or windy it might be!

Date:

Astronomy

Jan. 05, 2014 Rise Set
Actual Time 7:23 AM EST 5:27 PM EST
Civil Twilight 6:56 AM EST 5:55 PM EST
Nautical Twilight 6:25 AM EST 6:25 PM EST
Astronomical Twilight 5:55 AM EST 6:55 PM EST
Moon 10:20 AM EST (1/5) 10:35 PM EST (1/5)
Length of Visible Light 10h 58m
Length of Day
10h 04m
Waxing Crescent, 24% of the Moon is Illuminated
Jan 5
Waxing Crescent
Jan 7
First Quarter
Jan 15
Full
Jan 24
Last Quarter
Jan 30
New

Hourly Weather History & Observations

Time (EST) Temp. Windchill Dew Point Humidity Pressure Visibility Wind Dir Wind Speed Gust Speed Precip Events Conditions
12:56 AM 44.1 °F 40.8 °F 37.0 °F 76% 30.18 in 10.0 mi NNE 5.8 mph - N/A   Mostly Cloudy
1:56 AM 44.1 °F 40.1 °F 37.0 °F 76% 30.18 in 10.0 mi North 6.9 mph - N/A   Overcast
2:56 AM 44.1 °F 40.1 °F 37.9 °F 79% 30.16 in 10.0 mi North 6.9 mph - N/A   Overcast
3:56 AM 45.0 °F 41.2 °F 39.0 °F 80% 30.16 in 10.0 mi North 6.9 mph - N/A   Overcast
4:56 AM 45.0 °F 42.6 °F 39.9 °F 82% 30.14 in 10.0 mi NNE 4.6 mph - N/A   Mostly Cloudy
5:37 AM 44.6 °F 41.4 °F 39.2 °F 81% 30.13 in 10.0 mi NNE 5.8 mph - N/A   Mostly Cloudy
5:56 AM 45.0 °F 41.8 °F 39.9 °F 82% 30.13 in 10.0 mi North 5.8 mph - N/A   Mostly Cloudy
6:29 AM 46.4 °F 44.3 °F 39.2 °F 76% 30.13 in 10.0 mi North 4.6 mph - N/A   Scattered Clouds
6:56 AM 45.0 °F - 39.9 °F 82% 30.12 in 10.0 mi Calm Calm - N/A   Scattered Clouds
7:56 AM 45.0 °F 42.6 °F 41.0 °F 86% 30.12 in 10.0 mi NE 4.6 mph - N/A   Scattered Clouds
8:56 AM 50.0 °F - 44.1 °F 80% 30.11 in 10.0 mi North 4.6 mph - N/A   Mostly Cloudy
9:56 AM 53.1 °F - 46.0 °F 77% 30.11 in 10.0 mi Calm Calm - N/A   Mostly Cloudy
10:56 AM 57.0 °F - 48.0 °F 72% 30.10 in 10.0 mi Calm Calm - N/A   Mostly Cloudy
11:15 AM 59.0 °F - 48.2 °F 67% 30.09 in 10.0 mi West 3.5 mph - N/A   Mostly Cloudy
11:39 AM 60.8 °F - 50.0 °F 68% 30.07 in 10.0 mi ESE 3.5 mph - N/A   Overcast
11:56 AM 63.0 °F - 51.1 °F 65% 30.06 in 10.0 mi Calm Calm - N/A   Mostly Cloudy
12:56 PM 66.0 °F - 55.0 °F 68% 30.02 in 10.0 mi Calm Calm - N/A   Mostly Cloudy
1:39 PM 66.2 °F - 55.4 °F 68% 30.01 in 10.0 mi Calm Calm - N/A   Overcast
1:56 PM 66.0 °F - 55.9 °F 70% 30.00 in 10.0 mi Calm Calm - N/A   Overcast
2:56 PM 68.0 °F - 57.0 °F 68% 29.99 in 10.0 mi West 3.5 mph - N/A   Mostly Cloudy
3:56 PM 70.0 °F - 59.0 °F 68% 29.99 in 10.0 mi NW 4.6 mph - N/A   Mostly Cloudy
4:56 PM 64.9 °F - 54.0 °F 68% 29.99 in 10.0 mi West 4.6 mph - N/A   Mostly Cloudy
5:56 PM 61.0 °F - 53.1 °F 75% 29.98 in 10.0 mi Calm Calm - N/A   Mostly Cloudy
6:56 PM 59.0 °F - 53.1 °F 81% 29.98 in 10.0 mi Calm Calm - N/A   Overcast
7:24 PM 59.0 °F - 53.6 °F 82% 29.98 in 10.0 mi Calm Calm - N/A   Overcast
7:56 PM 57.0 °F - 52.0 °F 83% 29.97 in 10.0 mi Calm Calm - N/A   Overcast
8:36 PM 57.2 °F - 53.6 °F 88% 29.97 in 10.0 mi Calm Calm - N/A   Scattered Clouds
8:56 PM 55.9 °F - 53.1 °F 90% 29.96 in 7.0 mi Calm Calm - N/A   Scattered Clouds
9:56 PM 53.1 °F - 50.0 °F 89% 29.94 in 6.0 mi Calm Calm - N/A   Mostly Cloudy
10:56 PM 54.0 °F - 51.1 °F 90% 29.91 in 8.0 mi SSE 4.6 mph - N/A   Partly Cloudy
11:56 PM 55.0 °F - 53.1 °F 93% 29.88 in 8.0 mi SSE 6.9 mph - N/A   Scattered Clouds